When you browse on this site, cookies collect data to enhance your experience and personalize the content and advertising you see.
Visit our Privacy Policy to learn more. By continuing to use the site, you agree to this use of cookies and data.
  • In Czech Republic
  • List of Countries
  • For 7 days
  • Water Temperature
  • Satellite Maps
  • Weather Map
  • Weather Widgets
  • user-avatar
    Login

    Hourly Weather Pchil'nyky

    Today, 19 January, Saturday

    Time Temperature Precipitation Wind Pressure Humidity
    00:00 +3°C° 0 mm 3 mps 758 mmHg 89%
    01:00 +3°C° 0 mm 3 mps 758 mmHg 88%
    02:00 +3°C° 0 mm 3 mps 758 mmHg 89%
    03:00 +3°C° 0 mm 3 mps 758 mmHg 88%
    04:00 +3°C° 0 mm 3 mps 757 mmHg 87%
    05:00 +3°C° 0 mm 3 mps 757 mmHg 86%
    06:00 +3°C° 0 mm 3 mps 757 mmHg 87%
    07:00 +3°C° 0 mm 3 mps 758 mmHg 88%
    08:00 +4°C° 0 mm 3 mps 757 mmHg 89%
    09:00 +5°C° 0 mm 4 mps 758 mmHg 87%
    10:00 +6°C° 0 mm 4 mps 758 mmHg 85%
    11:00 +7°C° 0 mm 5 mps 758 mmHg 83%
    12:00 +7°C° 0 mm 5 mps 758 mmHg 81%
    13:00 +6°C° 0 mm 5 mps 759 mmHg 79%
    14:00 +6°C° 0 mm 5 mps 759 mmHg 75%
    15:00 +5°C° 0 mm 5 mps 759 mmHg 77%
    16:00 +4°C° 0 mm 4 mps 760 mmHg 79%
    17:00 +1°C° 0 mm 4 mps 760 mmHg 80%
    18:00 +1°C° 0 mm 4 mps 761 mmHg 80%
    19:00 +1°C° 0 mm 3 mps 761 mmHg 80%
    20:00 +1°C° 0 mm 3 mps 762 mmHg 80%
    21:00 0°C° 0 mm 3 mps 762 mmHg 83%
    22:00 0°C° 0 mm 3 mps 763 mmHg 85%
    23:00 -1°C° 0 mm 2 mps 763 mmHg 87%

    Tomorrow, 20 January, Sunday

    Time Temperature Precipitation Wind Pressure Humidity
    00:00 -2°C° 0 mm 2 mps 763 mmHg 87%
    01:00 -2°C° 0 mm 2 mps 763 mmHg 87%
    02:00 -2°C° 0 mm 2 mps 764 mmHg 86%
    03:00 -2°C° 0 mm 2 mps 764 mmHg 85%
    04:00 -2°C° 0 mm 2 mps 763 mmHg 85%
    05:00 -2°C° 0 mm 2 mps 763 mmHg 84%
    06:00 -2°C° 0 mm 2 mps 763 mmHg 83%
    07:00 -2°C° 0 mm 2 mps 763 mmHg 82%
    08:00 -2°C° 0 mm 2 mps 763 mmHg 81%
    09:00 -1°C° 0 mm 2 mps 763 mmHg 76%
    10:00 0°C° 0 mm 3 mps 763 mmHg 71%
    11:00 +1°C° 0 mm 3 mps 763 mmHg 65%
    12:00 +2°C° 0 mm 3 mps 763 mmHg 65%
    13:00 +2°C° 0 mm 3 mps 762 mmHg 64%
    14:00 +3°C° 0 mm 3 mps 762 mmHg 63%
    15:00 +2°C° 0 mm 3 mps 762 mmHg 68%
    16:00 +1°C° 0 mm 3 mps 762 mmHg 74%
    17:00 0°C° 0 mm 3 mps 762 mmHg 80%
    18:00 0°C° 0 mm 3 mps 761 mmHg 81%
    19:00 0°C° 0 mm 3 mps 761 mmHg 82%
    20:00 0°C° 0 mm 3 mps 761 mmHg 83%
    21:00 0°C° 0 mm 3 mps 760 mmHg 84%
    22:00 +1°C° 0 mm 3 mps 760 mmHg 84%
    23:00 +1°C° 0 mm 3 mps 760 mmHg 85%

    Day after tomorrow, 21 January, Monday

    Time Temperature Precipitation Wind Pressure Humidity
    00:00 +1°C° 0 mm 3 mps 759 mmHg 86%
    01:00 +1°C° 0 mm 4 mps 759 mmHg 86%
    02:00 +1°C° 0 mm 4 mps 758 mmHg 87%
    03:00 +1°C° 0.1 mm 4 mps 758 mmHg 86%
    04:00 +3°C° 0.1 mm 4 mps 757 mmHg 86%
    05:00 +4°C° 0.1 mm 4 mps 756 mmHg 85%
    06:00 +4°C° 0 mm 4 mps 756 mmHg 83%
    07:00 +3°C° 0 mm 5 mps 756 mmHg 82%
    08:00 +5°C° 0 mm 5 mps 756 mmHg 81%
    09:00 +6°C° 0.1 mm 5 mps 756 mmHg 78%
    10:00 +7°C° 0.1 mm 5 mps 755 mmHg 75%
    11:00 +8°C° 0.1 mm 5 mps 755 mmHg 72%
    12:00 +7°C° 0.3 mm 5 mps 755 mmHg 76%
    13:00 +7°C° 0.3 mm 5 mps 755 mmHg 80%
    14:00 +7°C° 0.3 mm 6 mps 755 mmHg 84%
    15:00 +5°C° 0 mm 6 mps 756 mmHg 85%
    16:00 +3°C° 0 mm 6 mps 756 mmHg 86%
    17:00 +2°C° 0 mm 6 mps 757 mmHg 88%
    18:00 +1°C° 0.1 mm 6 mps 757 mmHg 87%
    19:00 0°C° 0.1 mm 5 mps 758 mmHg 86%
    20:00 -1°C° 0.1 mm 5 mps 759 mmHg 85%
    21:00 -2°C° 0 mm 5 mps 759 mmHg 84%
    22:00 -2°C° 0 mm 5 mps 760 mmHg 84%
    23:00 -3°C° 0 mm 4 mps 761 mmHg 83%

    22 January, Tuesday

    Time Temperature Precipitation Wind Pressure Humidity
    00:00 -3°C° 0 mm 4 mps 761 mmHg 83%
    01:00 -4°C° 0 mm 4 mps 761 mmHg 82%
    02:00 -4°C° 0 mm 4 mps 762 mmHg 82%
    03:00 -4°C° 0 mm 4 mps 762 mmHg 81%
    04:00 -4°C° 0 mm 4 mps 762 mmHg 80%
    05:00 -5°C° 0 mm 3 mps 762 mmHg 79%
    06:00 -5°C° 0 mm 3 mps 762 mmHg 78%
    07:00 -5°C° 0 mm 3 mps 763 mmHg 77%
    08:00 -5°C° 0 mm 3 mps 763 mmHg 76%
    09:00 -4°C° 0 mm 3 mps 763 mmHg 72%
    10:00 -2°C° 0 mm 3 mps 763 mmHg 68%
    11:00 -1°C° 0 mm 3 mps 763 mmHg 64%
    12:00 -1°C° 0 mm 3 mps 763 mmHg 63%
    13:00 -1°C° 0 mm 3 mps 762 mmHg 62%
    14:00 0°C° 0 mm 3 mps 762 mmHg 61%
    15:00 -1°C° 0 mm 3 mps 762 mmHg 65%
    16:00 -2°C° 0 mm 3 mps 761 mmHg 69%
    17:00 -2°C° 0 mm 3 mps 761 mmHg 74%
    18:00 -2°C° 0 mm 3 mps 761 mmHg 74%
    19:00 -2°C° 0 mm 3 mps 761 mmHg 73%
    20:00 -2°C° 0 mm 3 mps 761 mmHg 73%
    21:00 -2°C° 0 mm 3 mps 760 mmHg 73%
    22:00 -2°C° 0 mm 3 mps 760 mmHg 72%
    23:00 -2°C° 0 mm 3 mps 760 mmHg 72%

    23 January, Wednesday

    Time Temperature Precipitation Wind Pressure Humidity
    00:00 -2°C° 0 mm 3 mps 760 mmHg 74%
    01:00 -2°C° 0 mm 3 mps 759 mmHg 76%
    02:00 -2°C° 0 mm 3 mps 759 mmHg 78%
    03:00 -2°C° 0 mm 3 mps 759 mmHg 80%
    04:00 -2°C° 0 mm 3 mps 758 mmHg 83%
    05:00 -2°C° 0 mm 3 mps 758 mmHg 86%
    06:00 -1°C° 0 mm 3 mps 758 mmHg 87%
    07:00 -1°C° 0 mm 3 mps 758 mmHg 88%
    08:00 -1°C° 0 mm 3 mps 757 mmHg 90%
    09:00 0°C° 0 mm 4 mps 757 mmHg 84%
    10:00 +3°C° 0 mm 4 mps 757 mmHg 78%
    11:00 +5°C° 0 mm 5 mps 757 mmHg 72%
    12:00 +6°C° 0 mm 5 mps 756 mmHg 73%
    13:00 +6°C° 0 mm 5 mps 756 mmHg 74%
    14:00 +7°C° 0 mm 5 mps 755 mmHg 75%
    15:00 +6°C° 0 mm 5 mps 755 mmHg 80%
    16:00 +5°C° 0 mm 4 mps 755 mmHg 85%
    17:00 +4°C° 0 mm 4 mps 755 mmHg 90%
    18:00 +4°C° 0.1 mm 4 mps 755 mmHg 90%
    19:00 +4°C° 0.1 mm 4 mps 755 mmHg 89%
    20:00 +4°C° 0.1 mm 4 mps 755 mmHg 89%
    21:00 +4°C° 0.1 mm 3 mps 755 mmHg 88%
    22:00 +4°C° 0.1 mm 3 mps 755 mmHg 87%
    23:00 +5°C° 0.1 mm 3 mps 755 mmHg 86%

    24 January, Thursday

    Time Temperature Precipitation Wind Pressure Humidity
    00:00 +4°C° 0 mm 3 mps 755 mmHg 85%
    01:00 +4°C° 0 mm 3 mps 755 mmHg 83%
    02:00 +4°C° 0 mm 3 mps 754 mmHg 82%
    03:00 +4°C° 0 mm 3 mps 754 mmHg 82%
    04:00 +5°C° 0 mm 3 mps 754 mmHg 82%
    05:00 +5°C° 0 mm 3 mps 754 mmHg 82%
    06:00 +6°C° 0.1 mm 2 mps 754 mmHg 82%
    07:00 +6°C° 0.1 mm 2 mps 754 mmHg 82%
    08:00 +6°C° 0.1 mm 2 mps 754 mmHg 82%
    09:00 +7°C° 0.1 mm 2 mps 754 mmHg 79%
    10:00 +8°C° 0.1 mm 3 mps 754 mmHg 77%
    11:00 +9°C° 0.1 mm 3 mps 754 mmHg 74%
    12:00 +10°C° 0 mm 3 mps 754 mmHg 71%
    13:00 +11°C° 0 mm 4 mps 753 mmHg 68%
    14:00 +11°C° 0 mm 4 mps 753 mmHg 65%
    15:00 +10°C° 0 mm 4 mps 753 mmHg 70%
    16:00 +8°C° 0 mm 4 mps 752 mmHg 76%
    17:00 +7°C° 0 mm 4 mps 752 mmHg 81%
    18:00 +6°C° 0 mm 4 mps 752 mmHg 82%
    19:00 +6°C° 0 mm 5 mps 752 mmHg 84%
    20:00 +6°C° 0 mm 5 mps 752 mmHg 85%
    21:00 +6°C° 0 mm 5 mps 751 mmHg 84%
    22:00 +6°C° 0 mm 5 mps 751 mmHg 84%
    23:00 +5°C° 0 mm 6 mps 751 mmHg 83%
    Show more